Voltar ao catálogo

FLOCK 4G 15

AtivoCiênciaSSO
NORAD 62678·PAYLOAD·🇺🇸 United States

Lançado Jan 14, 2025 de Vandenberg Space Force Base

Loading…

Próximas Passagens (próximas 24 horas)

TLE

AtualizadoSource: CelesTrak SupGP

Época: Sep 14, 2026, 06:45 UTC

1 62678C 25009BX  26257.28136574  .00008491  00000+0  28374-3 0  2578
2 62678  97.3966 338.8267 0004592  21.2893 247.5661 15.31056053    14

Acompanhe FLOCK 4G 15 em tempo real com AllMySat

Download on the App Store